Location: Wapato
(46.4478°N, 120.4212°W)
Time: 14:13:24
(UTC+00:00)

Vanguard 2 Rocket - Pass Details

Date: 14 May 2026
Orbit: 553 x 3286 km, 32.9° (Epoch: 7 June)

Event Time Altitude Azimuth Distance (km) Brightness Sun altitude
Rises 18:29:51 0° 221° (SW) 5,202 10.8 56.9°
Reaches altitude 10° 18:33:09 10° 213° (SSW) 4,549 10.7 57.3°
Maximum altitude 18:45:17 38° 151° (SSE) 3,731 11.7 58.5°
Drops below altitude 10° 19:01:57 10° 93° (E) 6,216 11.5 60.0°
Sets 19:07:24 0° 87° (E) 7,258 11.6 60.4°
